CZ-6A DEB

Satellite information

Favourite Embed

Satellite Type and Status

DEBRISIN ORBIT

Key statistics

Satellite CZ-6A DEB at a glance.

Uptime

494

Days in orbit

Revolutions

≈ 14.7

Per day

Orbit

LEO

Low Earth Orbit

Inclination

89.2

Latest

Satellite identification and parameters

Extended collection of information and parameters for CZ-6A DEB.

Object identification

Identified? True

Debris? True

Object name: CZ-6A DEB

International designator: 2024-140UP

Object number (NORAD): 61326

Object ID (CCSDS): 61326

Country: PEOPLES REPUBLIC OF CHINA (PRC)

Current information (Y/N): Y

RCS size: SMALL

Orbital parameters

Period: 98.272 minutes

Inclination: 89.1929 deg

SMA: 7054.177 km

Apoapsis: 761.279 km

Periapsis: 590.805 km

RAAN: 303.7903 deg

Eccentricy: 0.0120832

Argument of periapsis: 164.8696 deg

Mean anomaly: 195.6187 deg

Mean motion: 14.6532256 rev/day

Mean motion (dot): 0.00007914 rev/day2

B* drag term: 0.0013132 1/REarth

Two-line elements (TLE)

Creation date: Dec. 12, 2025, 7:16 a.m.

Reference frame: TEME

Reference center: EARTH

Epoch: Dec. 11, 2025, 9:06 p.m. UTC

TLE line 0: 0 CZ-6A DEB

TLE line 1: 1 61326U 24140UP 25345.87984885 .00007914 00000-0 13132-2 0 9998

TLE line 2: 2 61326 89.1929 303.7903 0120832 164.8696 195.6187 14.65322560 67867

Live tracking on map

Real-time ground track for satellite CZ-6A DEB.

In-orbit conjunctions

A list of the most updated potential collisions computed for object CZ-6A DEB.

Target Orbit TCA Probability of collision Miss distance Type
CZ-4 DEB SSO 2025-02-19 10:40:02 0.0001063964 564.0 (m) DEBRIS
SL-16 DEB LEO 2025-02-12 17:08:47 0.0005477213 163.0 (m) DEBRIS
COSMOS 2251 DEB LEO 2025-01-17 04:15:49 0.0002042963 524.0 (m) DEBRIS
NOAA 16 DEB SSO 2025-01-12 21:19:27 0.000125312 517.0 (m) DEBRIS
IRIDIUM 33 DEB LEO 2024-12-04 12:59:51 0.0002242008 740.0 (m) DEBRIS

Associated space launch

18 Low Earth Orbit communication satellites with Ku, Q and V band payloads for the G60 constellation operated by Shanghai Spacecom Satellite Technology (SSST) with funding backed by the Shanghai local government. Initial constellation will consist of 1296 satellites by 2027 with long term plans to expand it to 12000 satellites.

CZ-6A DEB was lifted into orbit during the mission ‘Long March 6A | G60 Polar Group 01’, on board a Long March 6A space rocket.

The launch took place on Aug. 6, 2024, 6:42 a.m. from Launch Complex 9A.

For more information about the launch, click the button.

Launch to space Long March 6A | G60 Polar Group 01
Long March 6A | G60 Polar Group 01

Agency: N/A

Status: Launch Successful

Launch date: Aug. 6, 2024, 6:42 a.m. UTC

Rocket: Long March 6A

Launch pad: Launch Complex 9A

Location: Taiyuan Satellite Launch Center, People's Republic of China

...

Latest news about this satellite

News about space launch
Brightness of first Chinese broadband constellation satellites alarms astronomers

The first satellites of a Chinese broadband constellation are significantly brighter than those of Western systems, posing a new challenge for astronomers.

News about space launch
Chinese rocket stage breaks up into cloud of more than 700 pieces of space debris

HELSINKI — A Chinese Long March 6A rocket’s upper stage has fragmented into a cloud of over 700 pieces of space debris, adding to concerns about long-term orbital safety. China […]

News about space launch
China's Thousand Sails Megaconstellation Kicks Off with Dangerous Debris Field

China's Thousand Sails Megaconstellation Kicks Off with Dangerous Debris Field


Newsletter sign-up

Weekly statistics, charts and insights to help you stay on top of the space industry.